Fresno Yosemite International Airport
KFAT : now visible

Airfield :











YOU CAN JOIN US ON...

 
LOGIN :

Register | Disclaimer

   EN    FR    IT 

 









Legend :    VFR   Marginal VFR   IFR   Intensive IFR   Very Intensive IFR
Visi :
Ceiling :
>= 8 km
>= 3000ft
5 to 8 km
1000 to 3000 ft
1500m to 5 km
500 to 1000 ft
800 to 1500m
200 to 500 ft
< 800m
< 200 ft
Symbols :   Thunderstorms  Fog  Heavy snow  Heavy precipitations  Wind > 20 kt







- Airport Elevation : 336 ft
- IATA code : FAT


KFAT - Fresno Yosemite International

CURRENT METAR :
  • 210353Z 30004KT 10SM CLR 24/08 A2990 RMK AO2 SLP122 T02390083

EXPIRED METARs :
  • 210253Z 30006KT 10SM CLR 26/08 A2988 RMK AO2 SLP116 T02560083 55000
  • 210153Z 32008KT 10SM CLR 27/07 A2987 RMK AO2 SLP113 T02670072

TAF KFAT
Valid from the 21 at 00:00 until the 22 at 00:00 UTC


202320Z 2100/2124 29006KT P6SM FEW070
FM210600 00000KT P6SM SKC
FM211200 13005KT P6SM SKC
FM211800 25004KT P6SM SCT250
No reported NOTAMs for that airfield.



MET'MAP, your aeronautical weather chart ! - Copyright ORBIFLY December 2007 - Disclaimer

ORBIFLY MET'MAP TEAM :

Programming & Development : Alexandra Zaïnal
Concept & Development : Baudouin d'Aumeries
Co-Development & Prog : Marc-Olivier Méhu
Technical & hardware support : Manuel Goepfert

Contact : metmap@orbifly.com




SOURCES & CREDITS :

   NOAA       Earth
Advisory